Weather History for Brisbane Airport M. O, Queensland

Change the Weather History Date:

Sunday, June 9, 2013

  Actual Average Record
Temperature  
Mean Temperature 66 °F -  
Max Temperature 70 °F 70 °F - ()
Min Temperature 62 °F 51 °F - ()
Cooling Degree Days 1    
Growing Degree Days 16 (Base 50)    
Moisture  
Dew Point 58 °F    
Average Humidity 78    
Maximum Humidity 100    
Minimum Humidity 43    
Precipitation  
Precipitation 0.03 in 0.09 in - ()
Sea Level Pressure  
Sea Level Pressure 30.23 in    
Wind  
Wind Speed 8 mph ()    
Max Wind Speed 14 mph    
Max Gust Speed -    
Visibility 6.5 miles    
Events Rain    
T = Trace of Precipitation, MM = Missing Value Source: Averaged Metar Reports

Daily Weather History Graph

Daily Weather History Graph

Search for Another Location

Airport:

Trip Planner

Search our weather history database for the weather conditions in past years. The results will help you decide how hot, cold, wet, or windy it might be!

Date:

Astronomy

Jun. 09, 2013 Rise Set
Actual Time 6:33 AM AEST 5:00 PM AEST
Civil Twilight 6:07 AM AEST 5:25 PM AEST
Nautical Twilight 5:38 AM AEST 5:54 PM AEST
Astronomical Twilight 5:10 AM AEST 6:23 PM AEST
Moon 6:41 AM AEST (6/9) 5:33 PM AEST (6/9)
Length of Visible Light 11h 18m
Length of Day
10h 27m
New Moon, 0% of the Moon is Illuminated
Jun 9
New Moon
Jun 17
First Quarter
Jun 23
Full
Jun 30
Last Quarter
Jul 8
New

Hourly Weather History & Observations

Time (AEST) Temp. Dew Point Humidity Pressure Visibility Wind Dir Wind Speed Gust Speed Precip Events Conditions
12:00 AM 63 °F 62 °F 97% 30.27 in 4 mi SSE 9.2 mph - - Rain Light Rain Showers
12:04 AM 62.6 °F 62.6 °F 100% 30.24 in 4.3 mi SSE 9.2 mph - N/A Rain Light Rain Showers
12:17 AM 62.6 °F 62.6 °F 100% 30.24 in 6.2 mi South 8.1 mph - N/A Rain Light Rain Showers
12:30 AM 62.6 °F 62.6 °F 100% 30.24 in 6.2 mi South 8.1 mph - N/A   Mostly Cloudy
1:00 AM 63 °F 62 °F 96% 30.27 in - SSE 8.1 mph - -  
1:00 AM 62.6 °F 62.6 °F 100% 30.24 in 3.1 mi SSE 8.1 mph - N/A Rain Light Rain Showers
1:30 AM 62.6 °F 62.6 °F 100% 30.24 in 4.3 mi South 6.9 mph - N/A Rain Light Rain Showers
2:00 AM 62.6 °F 62.6 °F 100% 30.24 in 5.0 mi SSW 8.1 mph - N/A   Mostly Cloudy
2:30 AM 62.6 °F 60.8 °F 94% 30.24 in 3.1 mi South 5.8 mph - N/A Rain Light Rain Showers
3:00 AM 63 °F 62 °F 94% 30.25 in 4 mi South 5.8 mph - - Rain Light Rain Showers
3:00 AM 62.6 °F 62.6 °F 100% 30.24 in 3.7 mi South 5.8 mph - N/A Rain Light Rain Showers
3:30 AM 62.6 °F 62.6 °F 100% 30.24 in 3.1 mi South 5.8 mph - N/A Rain Light Rain
3:39 AM 62.6 °F 62.6 °F 100% 30.24 in 2.5 mi SSE 4.6 mph - N/A Rain Light Rain
4:00 AM 62 °F 62 °F 99% 30.24 in - SSW 6.9 mph - -  
4:00 AM 62.6 °F 62.6 °F 100% 30.21 in 5.6 mi SSW 6.9 mph - N/A Rain Light Rain
4:30 AM 62.6 °F 60.8 °F 94% 30.21 in 6.2 mi SSW 6.9 mph - N/A   Overcast
5:00 AM 62.6 °F 60.8 °F 94% 30.24 in 6.2 mi South 6.9 mph - N/A   Overcast
5:30 AM 62.6 °F 60.8 °F 94% 30.24 in 6.2 mi SSE 5.8 mph - N/A   Mostly Cloudy
6:00 AM 63 °F 60 °F 87% 30.25 in 12 mi South 6.9 mph - -   Partly Cloudy
6:00 AM 62.6 °F 60.8 °F 94% 30.24 in 6.2 mi South 6.9 mph - N/A   Mostly Cloudy
6:30 AM 62.6 °F 60.8 °F 94% 30.24 in 6.2 mi South 6.9 mph - N/A   Mostly Cloudy
7:00 AM 63 °F 60 °F 87% 30.26 in - South 8.1 mph - -  
7:00 AM 62.6 °F 60.8 °F 94% 30.24 in 6.2 mi South 8.1 mph - N/A   Mostly Cloudy
7:30 AM 64.4 °F 60.8 °F 88% 30.27 in 6.2 mi South 9.2 mph - N/A   Mostly Cloudy
8:00 AM 62.6 °F 60.8 °F 94% 30.27 in 6.2 mi SSE 9.2 mph - N/A   Mostly Cloudy
8:14 AM 62.6 °F 60.8 °F 94% 30.27 in 5.0 mi South 8.1 mph - N/A   Light Drizzle
8:30 AM 62.6 °F 60.8 °F 94% 30.27 in 3.1 mi SSE 8.1 mph - N/A   Light Drizzle
9:00 AM 63 °F 61 °F 90% 30.30 in 7 mi South 9.2 mph - -   Mostly Cloudy
9:00 AM 62.6 °F 60.8 °F 94% 30.27 in 6.2 mi South 9.2 mph - N/A   Mostly Cloudy
9:30 AM 64.4 °F 59.0 °F 83% 30.30 in 6.2 mi South 8.1 mph - N/A   Mostly Cloudy
10:00 AM 65 °F 60 °F 79% 30.30 in - South 10.4 mph - -  
10:00 AM 66.2 °F 60.8 °F 83% 30.27 in 6.2 mi South 10.4 mph - N/A   Mostly Cloudy
10:30 AM 66.2 °F 59.0 °F 78% 30.27 in 6.2 mi SSE 9.2 mph - N/A   Mostly Cloudy
11:00 AM 68.0 °F 59.0 °F 73% 30.27 in 6.2 mi SSE 9.2 mph - N/A   Mostly Cloudy
11:30 AM 68.0 °F 59.0 °F 73% 30.27 in 6.2 mi SE 11.5 mph - N/A   Mostly Cloudy
12:00 PM 69 °F 57 °F 58% 30.25 in 16 mi SSE 10.4 mph - -   Partly Cloudy
12:00 PM 69.8 °F 57.2 °F 64% 30.24 in 6.2 mi SSE 10.4 mph - N/A   Mostly Cloudy
12:30 PM 69.8 °F 57.2 °F 64% 30.21 in 6.2 mi SSE 13.8 mph - N/A   Mostly Cloudy
1:00 PM 70 °F 57 °F 54% 30.22 in - SSE 11.5 mph - -  
1:00 PM 69.8 °F 57.2 °F 64% 30.21 in 6.2 mi SSE 11.5 mph - N/A   Mostly Cloudy
1:30 PM 69.8 °F 53.6 °F 56% 30.18 in 6.2 mi SE 12.7 mph - N/A   Mostly Cloudy
2:00 PM 69.8 °F 53.6 °F 56% 30.18 in 6.2 mi SE 12.7 mph - N/A   Mostly Cloudy
2:30 PM 69.8 °F 51.8 °F 53% 30.18 in 6.2 mi SE 12.7 mph - N/A   Mostly Cloudy
3:00 PM 69 °F 52 °F 44% 30.21 in 16 mi SE 10.4 mph - -   Partly Cloudy
3:00 PM 69.8 °F 51.8 °F 53% 30.18 in 6.2 mi SE 10.4 mph - N/A   Mostly Cloudy
3:30 PM 68.0 °F 51.8 °F 56% 30.18 in 6.2 mi SE 10.4 mph - N/A   Mostly Cloudy
4:00 PM 69 °F 51 °F 43% 30.21 in - SE 10.4 mph - -  
4:00 PM 68.0 °F 51.8 °F 56% 30.18 in 6.2 mi SE 10.4 mph - N/A   Mostly Cloudy
4:30 PM 68.0 °F 53.6 °F 60% 30.18 in 6.2 mi SE 8.1 mph - N/A   Mostly Cloudy
5:00 PM 68.0 °F 55.4 °F 64% 30.18 in 6.2 mi SE 9.2 mph - N/A   Mostly Cloudy
5:30 PM 66.2 °F 55.4 °F 68% 30.18 in - SSE 9.2 mph - N/A   Clear
6:00 PM 66 °F 54 °F 55% 30.21 in 16 mi South 8.1 mph - -   Partly Cloudy
6:00 PM 66.2 °F 53.6 °F 64% 30.18 in 6.2 mi South 8.1 mph - N/A   Mostly Cloudy
6:30 PM 66.2 °F 53.6 °F 64% 30.21 in 6.2 mi South 8.1 mph - N/A   Mostly Cloudy
7:00 PM 65 °F 54 °F 59% 30.22 in - South 8.1 mph - -  
7:00 PM 66.2 °F 53.6 °F 64% 30.21 in 6.2 mi South 8.1 mph - N/A   Mostly Cloudy
7:30 PM 64.4 °F 53.6 °F 68% 30.21 in 6.2 mi South 6.9 mph - N/A   Mostly Cloudy
8:00 PM 66.2 °F 53.6 °F 64% 30.21 in 6.2 mi South 6.9 mph - N/A   Overcast
8:30 PM 64.4 °F 53.6 °F 68% 30.21 in 6.2 mi South 8.1 mph - N/A   Mostly Cloudy
9:00 PM 65 °F 54 °F 60% 30.23 in 19 mi South 8.1 mph - -   Partly Cloudy
9:00 PM 64.4 °F 53.6 °F 68% 30.21 in 6.2 mi South 8.1 mph - N/A   Mostly Cloudy
9:30 PM 64.4 °F 53.6 °F 68% 30.21 in 6.2 mi South 9.2 mph - N/A   Mostly Cloudy
10:00 PM 65 °F 54 °F 58% 30.22 in - South 10.4 mph - -  
10:00 PM 64.4 °F 53.6 °F 68% 30.21 in 6.2 mi South 10.4 mph - N/A   Mostly Cloudy
10:30 PM 64.4 °F 55.4 °F 73% 30.21 in 6.2 mi South 9.2 mph - N/A   Mostly Cloudy
11:00 PM 64.4 °F 55.4 °F 73% 30.18 in 6.2 mi South 10.4 mph - N/A   Mostly Cloudy
11:30 PM 64.4 °F 55.4 °F 73% 30.18 in 6.2 mi South 9.2 mph - N/A   Mostly Cloudy